Kailua Kona, HI

11:44 AM HST on February 06, 2016 (GMT -1000)
Kona International At Keahole

Weather History for PHKO - October, 2012

Change the Weather History Date:

Monday, October 1, 2012

  Actual Average Record
Temperature  
Mean Temperature 78 °F -  
Max Temperature 82 °F 84 °F 92 °F (1986)
Min Temperature 73 °F 73 °F 71 °F (1982)
Cooling Degree Days 12    
Growing Degree Days 28 (Base 50)    
Moisture  
Dew Point 67 °F    
Average Humidity 67    
Maximum Humidity 73    
Minimum Humidity 60    
Precipitation  
Precipitation 0.00 in - - ()
Sea Level Pressure  
Sea Level Pressure 29.94 in    
Wind  
Wind Speed 7 mph (SSE)    
Max Wind Speed 10 mph    
Max Gust Speed -    
Visibility 10 miles    
Events      
Averages and records for this station are not official NWS values.
T = Trace of Precipitation, MM = Missing Value Source: NWS Daily Summary

Daily Weather History Graph

Daily Weather History Graph

Search for Another Location

Airport or City:

Trip Planner

Search our weather history database for the weather conditions in past years. The results will help you decide how hot, cold, wet, or windy it might be!

Date:

Astronomy

Oct. 01, 2012 Rise Set
Actual Time 6:15 AM HST 6:11 PM HST
Civil Twilight 5:53 AM HST 6:33 PM HST
Nautical Twilight 5:27 AM HST 6:59 PM HST
Astronomical Twilight 5:02 AM HST 7:24 PM HST
Moon 7:17 PM HST (10/1) 7:35 AM HST (10/1)
Length of Visible Light 12h 40m
Length of Day
11h 56m
Full, 97% of the Moon is Illuminated
Oct 1
Full
Oct 7
Last Quarter
Oct 15
New
Oct 21
First Quarter
Oct 29
Full

Hourly Weather History & Observations

Time (HST) Temp. Heat Index Dew Point Humidity Pressure Visibility Wind Dir Wind Speed Gust Speed Precip Events Conditions
12:53 AM 75.0 °F - 64.0 °F 69% 29.96 in 10.0 mi ESE 6.9 mph - N/A   Clear
1:53 AM 75.0 °F - 64.0 °F 69% 29.94 in 10.0 mi East 5.8 mph - N/A   Clear
2:53 AM 73.9 °F - 64.0 °F 71% 29.91 in 10.0 mi East 6.9 mph - N/A   Clear
3:53 AM 73.9 °F - 62.1 °F 66% 29.91 in 10.0 mi East 4.6 mph - N/A   Clear
4:53 AM 73.0 °F - 63.0 °F 71% 29.91 in 10.0 mi East 5.8 mph - N/A   Clear
5:53 AM 73.0 °F - 64.0 °F 73% 29.92 in 10.0 mi East 4.6 mph - N/A   Clear
6:53 AM 73.0 °F - 63.0 °F 71% 29.94 in 10.0 mi East 3.5 mph - N/A   Clear
7:53 AM 78.1 °F - 66.0 °F 66% 29.95 in 10.0 mi Calm Calm - N/A   Clear
8:53 AM 79.0 °F - 66.9 °F 66% 29.97 in 10.0 mi NW 5.8 mph - N/A   Clear
9:53 AM 81.0 °F 83.8 °F 68.0 °F 65% 29.97 in 10.0 mi West 8.1 mph - N/A   Clear
10:53 AM 82.0 °F 84.9 °F 68.0 °F 62% 29.97 in 10.0 mi WNW 9.2 mph - N/A   Clear
11:53 AM 82.9 °F 85.8 °F 68.0 °F 60% 29.95 in 10.0 mi WNW 10.4 mph - N/A   Clear
12:53 PM 82.9 °F 85.8 °F 68.0 °F 60% 29.92 in 10.0 mi West 9.2 mph - N/A   Clear
1:53 PM 82.9 °F 85.8 °F 68.0 °F 60% 29.90 in 10.0 mi WSW 9.2 mph - N/A   Clear
2:53 PM 81.0 °F 83.8 °F 68.0 °F 65% 29.90 in 10.0 mi WSW 9.2 mph - N/A   Clear
3:53 PM 81.0 °F 84.1 °F 69.1 °F 67% 29.89 in 10.0 mi WSW 8.1 mph - N/A   Clear
4:53 PM 81.0 °F 84.1 °F 69.1 °F 67% 29.89 in 10.0 mi SW 8.1 mph - N/A   Clear
5:53 PM 79.0 °F - 69.1 °F 72% 29.90 in 10.0 mi SSW 8.1 mph - N/A   Clear
6:53 PM 79.0 °F - 69.1 °F 72% 29.93 in 10.0 mi SSW 8.1 mph - N/A   Clear
7:53 PM 79.0 °F - 68.0 °F 69% 29.95 in 10.0 mi SSE 9.2 mph - N/A   Clear
8:53 PM 79.0 °F - 68.0 °F 69% 29.97 in 10.0 mi SSE 9.2 mph - N/A   Overcast
9:53 PM 79.0 °F - 68.0 °F 69% 29.98 in 10.0 mi SSE 8.1 mph - N/A   Overcast
10:43 PM 78.8 °F - 66.2 °F 65% 29.97 in 10.0 mi ESE 5.8 mph - N/A   Overcast
10:53 PM 78.1 °F - 68.0 °F 71% 29.98 in 10.0 mi SE 4.6 mph - N/A   Overcast
11:14 PM 78.8 °F - 66.2 °F 65% 29.97 in 10.0 mi SE 4.6 mph - N/A   Mostly Cloudy
11:36 PM 78.8 °F - 66.2 °F 65% 29.97 in 10.0 mi SE 3.5 mph - N/A   Overcast
11:53 PM 77.0 °F - 66.9 °F 71% 29.97 in 10.0 mi SE 3.5 mph - N/A   Mostly Cloudy